Location: *
(57.8420°S, 159.8600°W)
Time: 04:04:34
(UTC+00:00)

Cosmos 1408 - Pass Details

Date: 18 May 2021
Orbit: 468 x 490 km, 82.6° (Epoch: 20 June)

Event Time Altitude Azimuth Distance (km) Brightness Sun altitude
Rises 04:28:01 0° 331° (NNW) 2,588 6.9 -15.5°
Reaches altitude 10° 04:30:12 10° 324° (NW) 1,712 6.0 -15.8°
Maximum altitude 04:33:48 44° 251° (WSW) 714 3.8 -16.2°
Drops below altitude 10° 04:37:27 10° 177° (S) 1,727 5.2 -16.7°
Enters shadow 04:38:49 - 172° (S) 2,276 5.8 -16.9°
